COSMOS 1275 DEB, 39965

Orbit data source: Space-Track

COSMOS 1275 DEB, 39965 is space debris in LEO originally from a launch on Thu, 04 Jun 1981 UTC launched from the Plesetsk Missile And Space Complex (PKMTR). Debris objects in space refer to the collection of defunct objects orbiting the Earth. Examples of debris include non-operational satellites, rocket bodies, and fragments generated from explosions, collisions, or faulty payload assembly.

Loading next visibility...
Identifier
39965, 1981-053PB
Orbit
LEO
Country
Flag of CISCIS
Related business
Manufacturer
Unknown
Mission
Spacecraft
Bus & Motor
Unknown
Mass
Unknown
Launch date (UTC)
1981-06-04 (45 years ago)
Launch vehicle
Unknown
Launch site
Plesetsk Missile And Space Complex (PKMTR)
Object type
Payload
Rocket body
Debris
Shape & HBR
Unknown shape, 0.1 m
Radar Cross Section
Small (<0.1 m²)

Expand to show TLE details & history
Last TLE update: 18 hours ago

TLE from 18 hours ago
0 COSMOS 1275 DEB
1 39965U 81053PB  26177.94765021  .00000526  00000-0  45317-3 0  9992
2 39965  82.9657 245.3833 0041011 316.4085 226.0084 13.84455490607966
Epoch: 2026-06-26T22:44Z
TLE epoch observation values (Epoch: 2026-06-26T22:44:36.978Z)
Latitude
-2.19251°
Longitude
169.42965°
Altitude
972.287 km
Speed
7.355 km/s
True Right ascension
04h 22m 36s
True Declination
-2° 10' 47"
Sunlit
Object was in daylight at epoch
Visualization orbit readout
Latitude
Unknown
Longitude
Unknown
Altitude
Unknown
Speed
Unknown
Apparent Right ascension
Unknown
Apparent Declination
Unknown
Sunlit
N/A
Visualization observer readout
Local Sidereal Time
04:21:45
Azimuth
Unknown
Elevation
Unknown
Doppler factor
Unknown
Orbital elements
Apogee altitude
975.295 km
Perigee altitude
915.227 km
Semi-major axis
7,323.398 km
Eccentricity
0.0041
Inclination
82.9657°
RAAN
245.3833°
Arg. of periapsis
316.4085°
True anomaly
225.6715°
Mean anomaly
226.0084°
Eccentric anomaly
225.83983°
Mean motion
3.46317 °/min
Orbital period
103.95 mins
BSTAR
0.00045317
Loading maneuver chart data...
Computing Atmospheric mass density...
Loading historical data...
Loading historical data...
Loading historical data...
Loading historical data...
Loading historical data...
Loading historical data...
Loading historical data...

Documentation

Showing up to 5 results
|